Find Starlink 34750

NORAD ID: 65061 Int'l Des: 2025-165 Owner: SPXS Country: US Constellation: starlink operational
LEOCIRCULARRETROGRADESSO

Aktuelle Ansicht

3D-Globus wird geladen...

Über Starlink 34750

Beschreibung wird geladen...

Nächste Überflüge

Passes for default location (London). Set your location on the main map for personalized predictions.

Höhenverlauf

Loading altitude history...

Zweizeiliger Elementsatz

1 65061U 25165F 26150.15692067 .00007985 00000-0 55664-3 0 9995
2 65061 97.4280 227.1239 0001999 126.7176 233.4235 15.05660970 47051
Epoch: 30. Mai 2026 • Age: 11 hours

Aktueller Status

Höhe 565.1 km
Geschwindigkeit 7.58 km/s
Subsatellitenpunkt -37.42°S, 123.67°E
Startdatum 31. Juli 2025
Alter 0.8 years
Typ internet

Technische Details

Klassifizierung Payload
Masse 575.00 kg
Trockenmasse 530.00 kg
Gesamtmasse 575.00 kg
Länge 0.30 m
Durchmesser 4.10 m
Spannweite 29.00 m
Form Box + pan
Hersteller SPXS
Bus-Typ Starlink V2MO
Phasenstatus In Orbit
Besitzer/Staat SPXS/US

Most Searched